User: anonymous   Login
Location: Lawrence
(38.9720°N, 95.2350°W)
Time: 11:55:56
(UTC-05:00)
Language:

ALOS - Orbit

View from above orbital plane
View from above orbital plane
View from above satellite
View from above satellite

Ground track
Ground track

The orbit data is extracted from the following two-line orbital elements,

1 28931U 06002A   15181.55742739  .00000363  00000-0  81538-4 0  9990
2 28931 097.9309 230.4256 0002526 080.3603 279.7885 14.61902956502599
Epoch (UTC): 30 June 2015 13:22:41
Eccentricity: 0.0002526
inclination: 97.9309°
perigee height: 685 km
apogee height: 689 km
right ascension of ascending node: 230.4256°
argument of perigee: 80.3603°
revolutions per day: 14.61902956
mean anomaly at epoch: 279.7885°
orbit number at epoch: 50259

The dashed part of the orbit path shows where the satellite is in the earth's shadow,  

DLR